Biloxi, MS

10:41 PM CST on February 19, 2018 (GMT -0600)
Keesler Air Force Base

Weather History for KBIX - April, 2013

Change the Weather History Date:

Tuesday, April 30, 2013

  Actual Average Record
Temperature  
Mean Temperature 72 °F -  
Max Temperature 78 °F 79 °F 89 °F (1952)
Min Temperature 66 °F 64 °F 50 °F (1965)
Cooling Degree Days 7    
Growing Degree Days 22 (Base 50)    
Moisture  
Dew Point 68 °F    
Average Humidity 87    
Maximum Humidity 96    
Minimum Humidity 69    
Precipitation  
Precipitation 0.43 in - - ()
Sea Level Pressure  
Sea Level Pressure 29.92 in    
Wind  
Wind Speed 8 mph (ESE)    
Max Wind Speed 20 mph    
Max Gust Speed 24 mph    
Visibility 9 miles    
Events Fog , Rain , Thunderstorm    
Averages and records for this station are not official NWS values.
T = Trace of Precipitation, MM = Missing Value Source: NWS Daily Summary

Daily Weather History Graph

Daily Weather History Graph

Search for Another Location

Airport or City:

Trip Planner

Search our weather history database for the weather conditions in past years. The results will help you decide how hot, cold, wet, or windy it might be!

Date:

Astronomy

Apr. 30, 2013 Rise Set
Actual Time 6:12 AM CDT 7:33 PM CDT
Civil Twilight 5:47 AM CDT 7:58 PM CDT
Nautical Twilight 5:17 AM CDT 8:29 PM CDT
Astronomical Twilight 4:45 AM CDT 9:00 PM CDT
Moon No Moon Rise 10:45 AM CDT (4/30)
Length of Visible Light 14h 11m
Length of Day
13h 20m
Waning Gibbous, 70% of the Moon is Illuminated
Apr 30
Waning Gibbous
May 2
Last Quarter
May 9
New
May 17
First Quarter
May 24
Full

Hourly Weather History & Observations

Time (CDT) Temp. Dew Point Humidity Pressure Visibility Wind Dir Wind Speed Gust Speed Precip Events Conditions
12:58 AM 71.6 °F 67.6 °F 87% 29.93 in 10.0 mi South 3.5 mph - N/A   Clear
1:58 AM 70.2 °F 67.1 °F 90% 29.91 in 10.0 mi Calm Calm - N/A   Clear
2:55 AM 67.8 °F 66.2 °F 95% 29.91 in 10.0 mi Calm Calm - N/A   Clear
3:55 AM 67.6 °F 66.4 °F 96% 29.90 in 10.0 mi East 6.9 mph - N/A   Overcast
4:55 AM 66.9 °F 65.8 °F 96% 29.90 in 10.0 mi ENE 4.6 mph - N/A   Scattered Clouds
5:55 AM 67.3 °F 66.2 °F 96% 29.91 in 10.0 mi ENE 4.6 mph - N/A   Overcast
6:58 AM 68.0 °F 66.9 °F 96% 29.93 in 10.0 mi ENE 4.6 mph - N/A   Clear
7:58 AM 70.2 °F 68.5 °F 95% 29.93 in 10.0 mi East 9.2 mph - N/A   Clear
8:58 AM 74.3 °F 69.3 °F 84% 29.93 in 10.0 mi East 10.4 mph - N/A   Scattered Clouds
9:33 AM 77.0 °F 68.0 °F 74% 29.93 in 10.0 mi ESE 10.4 mph - N/A   Mostly Cloudy
9:55 AM 77.5 °F 67.5 °F 71% 29.94 in 10.0 mi SE 12.7 mph - N/A   Mostly Cloudy
10:58 AM 78.8 °F 68.0 °F 69% 29.94 in 10.0 mi SE 15.0 mph - N/A   Overcast
11:55 AM 77.0 °F 68.0 °F 74% 29.96 in 10.0 mi SE 12.7 mph - N/A   Mostly Cloudy
12:55 PM 77.0 °F 69.8 °F 78% 29.93 in 10.0 mi ESE 16.1 mph - N/A   Mostly Cloudy
12:56 PM 77.0 °F 69.8 °F 78% 29.93 in 10.0 mi SE 15.0 mph - N/A   Mostly Cloudy
1:06 PM 77.0 °F 69.8 °F 78% 29.94 in 10.0 mi ESE 16.1 mph - N/A   Mostly Cloudy
1:11 PM 77.0 °F 69.8 °F 78% 29.94 in 10.0 mi SE 19.6 mph - N/A   Mostly Cloudy
1:30 PM 77.0 °F 69.8 °F 78% 29.93 in 10.0 mi SE 16.1 mph 21.9 mph N/A   Overcast
1:58 PM 77.0 °F 69.8 °F 78% 29.93 in 10.0 mi SE 16.1 mph 24.2 mph N/A   Mostly Cloudy
2:58 PM 75.2 °F 69.8 °F 83% 29.92 in 10.0 mi SE 13.8 mph 24.2 mph N/A   Mostly Cloudy
3:02 PM 75.2 °F 69.8 °F 83% 29.91 in 10.0 mi SE 11.5 mph 19.6 mph N/A   Mostly Cloudy
3:09 PM 75.2 °F 69.8 °F 83% 29.91 in 10.0 mi SE 11.5 mph 21.9 mph N/A   Mostly Cloudy
3:21 PM 75.2 °F 69.8 °F 83% 29.91 in 10.0 mi SE 12.7 mph 19.6 mph N/A   Mostly Cloudy
3:36 PM 75.2 °F 69.8 °F 83% 29.90 in 10.0 mi SE 13.8 mph 19.6 mph N/A   Mostly Cloudy
3:58 PM 75.2 °F 69.8 °F 83% 29.88 in 10.0 mi ESE 10.4 mph 21.9 mph N/A   Overcast
4:58 PM 75.2 °F 69.8 °F 83% 29.89 in 10.0 mi SE 11.5 mph 21.9 mph N/A Thunderstorm Overcast
5:16 PM 75.2 °F 69.8 °F 83% 29.89 in 10.0 mi SE 10.4 mph - N/A Thunderstorm Thunderstorm
5:25 PM 73.4 °F 69.8 °F 88% 29.89 in 10.0 mi Variable 6.9 mph - N/A Thunderstorm Thunderstorm
5:27 PM 73.4 °F 69.8 °F 88% 29.89 in 10.0 mi West 9.2 mph - N/A Rain , Thunderstorm Light Thunderstorms and Rain
5:34 PM 71.6 °F 66.2 °F 83% 29.88 in 2.5 mi West 8.1 mph - N/A Rain , Thunderstorm Light Thunderstorms and Rain
5:43 PM 69.8 °F 66.2 °F 88% 29.90 in 1.0 mi SSW 5.8 mph - N/A Rain , Thunderstorm Thunderstorms and Rain
5:48 PM 68.0 °F 66.2 °F 94% 29.90 in 1.2 mi WSW 9.2 mph - N/A Rain , Thunderstorm Heavy Thunderstorms and Rain
5:54 PM 68.0 °F 66.2 °F 94% 29.90 in 0.5 mi Variable 4.6 mph - N/A Fog , Rain , Thunderstorm Heavy Thunderstorms and Rain
5:58 PM 68.4 °F 66.4 °F 93% 29.91 in 0.5 mi SW 15.0 mph 18.4 mph 0.40 in Fog , Rain , Thunderstorm Heavy Thunderstorms and Rain
6:05 PM 68.0 °F 66.2 °F 94% 29.89 in 1.5 mi SW 13.8 mph - N/A Rain , Thunderstorm Light Thunderstorms and Rain
6:13 PM 68.0 °F 66.2 °F 94% 29.91 in 3.0 mi South 6.9 mph - N/A Rain , Thunderstorm Light Thunderstorms and Rain
6:43 PM 68.0 °F 66.2 °F 94% 29.91 in 6.0 mi South 3.5 mph - N/A Rain Light Rain
7:13 PM 69.8 °F 66.2 °F 88% 29.92 in 10.0 mi Calm Calm - N/A Rain Light Rain
7:31 PM 69.8 °F 66.2 °F 88% 29.92 in 10.0 mi East 2.3 mph - N/A   Scattered Clouds
7:32 PM 69.8 °F 66.2 °F 88% 29.92 in 10.0 mi East 2.3 mph - N/A   Light Drizzle
7:37 PM 69.8 °F 66.2 °F 88% 29.92 in 10.0 mi ENE 2.3 mph - N/A   Light Drizzle
7:42 PM 69.8 °F 66.2 °F 88% 29.92 in 10.0 mi East 3.5 mph - N/A   Light Drizzle
7:47 PM 69.8 °F 66.2 °F 88% 29.92 in 10.0 mi ENE 4.6 mph - N/A Rain Light Rain
7:52 PM 69.8 °F 66.2 °F 88% 29.91 in 10.0 mi ENE 3.5 mph - N/A Rain Light Rain
7:58 PM 69.1 °F 66.4 °F 91% 29.92 in 10.0 mi NE 5.8 mph - 0.03 in Rain Light Rain
8:27 PM 68.0 °F 66.2 °F 94% 29.91 in 10.0 mi ENE 9.2 mph - N/A   Partly Cloudy
8:58 PM 67.6 °F 65.8 °F 94% 29.92 in 10.0 mi ENE 5.8 mph - 0.00 in   Scattered Clouds
9:13 PM 68.0 °F 66.2 °F 94% 29.91 in 10.0 mi ENE 3.5 mph - N/A   Mostly Cloudy
9:23 PM 68.0 °F 66.2 °F 94% 29.91 in 10.0 mi ENE 5.8 mph - N/A   Overcast
9:58 PM 68.0 °F 65.8 °F 93% 29.93 in 10.0 mi East 8.1 mph - N/A   Overcast
10:03 PM 68.0 °F 66.2 °F 94% 29.93 in 10.0 mi ENE 9.2 mph - N/A   Overcast
10:23 PM 68.0 °F 66.2 °F 94% 29.92 in 10.0 mi ENE 8.1 mph - N/A   Mostly Cloudy
10:28 PM 68.0 °F 66.2 °F 94% 29.92 in 10.0 mi ENE 6.9 mph - N/A   Mostly Cloudy
10:58 PM 68.4 °F 66.2 °F 93% 29.92 in 10.0 mi East 6.9 mph - N/A   Overcast
11:58 PM 68.7 °F 66.9 °F 94% 29.90 in 10.0 mi ENE 6.9 mph - N/A   Overcast